Time,TemperatureF,DewpointF,PressureIn,WindDirection,WindDirectionDegrees,WindSpeedMPH,WindSpeedGustMPH,Humidity,HourlyPrecipIn,Conditions,Clouds,dailyrainin,SoftwareType,DateUTC
2013-12-10 00:10:00,-999.9,-99.9,30.07,North,32767,-999.0,7.0,255,-99.99,,,0.00,Wunderground v.1.15,2013-12-10 05:10:00,
2013-12-10 00:22:00,-999.9,-99.9,30.07,North,32767,-999.0,7.0,255,-99.99,,,0.00,Wunderground v.1.15,2013-12-10 05:22:00,
2013-12-10 00:34:00,-999.9,-99.9,30.07,North,32767,-999.0,7.0,255,-99.99,,,0.00,Wunderground v.1.15,2013-12-10 05:34:00,
2013-12-10 00:46:00,-999.9,-99.9,30.06,North,32767,-999.0,7.0,255,-99.99,,,0.00,Wunderground v.1.15,2013-12-10 05:46:00,
2013-12-10 00:58:00,-999.9,-99.9,30.06,North,32767,-999.0,7.0,255,-99.99,,,0.00,Wunderground v.1.15,2013-12-10 05:58:00,
2013-12-10 01:10:00,-999.9,-99.9,30.06,North,32767,-999.0,7.0,255,-99.99,,,0.00,Wunderground v.1.15,2013-12-10 06:10:00,
2013-12-10 01:22:00,-999.9,-99.9,30.06,North,32767,-999.0,7.0,255,-99.99,,,0.00,Wunderground v.1.15,2013-12-10 06:22:00,
2013-12-10 01:34:00,-999.9,-99.9,30.06,North,32767,-999.0,7.0,255,-99.99,,,0.00,Wunderground v.1.15,2013-12-10 06:34:00,
2013-12-10 01:46:00,-999.9,-99.9,30.05,North,32767,-999.0,7.0,255,-99.99,,,0.00,Wunderground v.1.15,2013-12-10 06:46:00,
2013-12-10 01:58:00,-999.9,-99.9,30.05,North,32767,-999.0,7.0,255,-99.99,,,0.00,Wunderground v.1.15,2013-12-10 06:58:00,
2013-12-10 02:10:00,-999.9,-99.9,30.05,North,32767,-999.0,7.0,255,-99.99,,,0.00,Wunderground v.1.15,2013-12-10 07:10:00,
2013-12-10 02:22:00,-999.9,-99.9,30.05,North,32767,-999.0,7.0,255,-99.99,,,0.00,Wunderground v.1.15,2013-12-10 07:22:00,
2013-12-10 02:34:00,73.1,69.3,30.05,ESE,119,0.0,7.0,88,0.00,,,0.00,Wunderground v.1.15,2013-12-10 07:34:00,
2013-12-10 02:46:00,72.5,69.1,30.05,SE,125,0.0,7.0,89,0.00,,,0.00,Wunderground v.1.15,2013-12-10 07:46:00,
2013-12-10 02:58:00,74.4,70.9,30.05,ESE,118,0.0,7.0,89,0.00,,,0.00,Wunderground v.1.15,2013-12-10 07:58:00,
2013-12-10 03:10:00,-999.9,-99.9,30.05,North,32767,-999.0,7.0,255,-99.99,,,0.00,Wunderground v.1.15,2013-12-10 08:10:00,
2013-12-10 03:22:00,-90.0,-91.4,30.05,ESE,113,0.0,7.0,90,0.00,,,0.00,Wunderground v.1.15,2013-12-10 08:22:00,
2013-12-10 03:34:00,-999.9,-99.9,30.05,North,32767,-999.0,7.0,255,-99.99,,,0.00,Wunderground v.1.15,2013-12-10 08:34:00,
2013-12-10 03:46:00,74.2,70.4,30.04,ESE,117,0.0,7.0,88,0.00,,,0.00,Wunderground v.1.15,2013-12-10 08:46:00,
2013-12-10 03:58:00,73.9,70.1,30.05,SE,127,0.0,7.0,88,0.00,,,0.00,Wunderground v.1.15,2013-12-10 08:58:00,
2013-12-10 04:10:00,73.6,70.2,30.05,SE,124,0.0,0.0,89,0.00,,,0.00,Wunderground v.1.15,2013-12-10 09:10:00,
2013-12-10 04:22:00,-90.0,-91.5,30.04,SE,134,0.0,0.0,89,0.00,,,0.00,Wunderground v.1.15,2013-12-10 09:22:00,
2013-12-10 04:34:00,-999.9,-99.9,30.05,North,32767,-999.0,0.0,255,-99.99,,,0.00,Wunderground v.1.15,2013-12-10 09:34:00,
2013-12-10 04:46:00,-999.9,-99.9,30.05,North,32767,-999.0,0.0,255,-99.99,,,0.00,Wunderground v.1.15,2013-12-10 09:46:00,
2013-12-10 04:58:00,-999.9,-99.9,30.05,North,32767,-999.0,0.0,255,-99.99,,,0.00,Wunderground v.1.15,2013-12-10 09:58:00,
2013-12-10 05:10:00,72.4,69.6,30.05,ESE,121,0.0,2.0,91,0.00,,,0.00,Wunderground v.1.15,2013-12-10 10:10:00,
2013-12-10 05:22:00,71.8,69.0,30.05,ESE,121,0.0,2.0,91,0.00,,,0.00,Wunderground v.1.15,2013-12-10 10:22:00,
2013-12-10 05:34:00,70.8,68.4,30.05,ESE,122,0.0,2.0,92,0.00,,,0.00,Wunderground v.1.15,2013-12-10 10:34:00,
2013-12-10 05:46:00,-999.9,-99.9,30.06,North,32767,-999.0,2.0,255,-99.99,,,0.00,Wunderground v.1.15,2013-12-10 10:46:00,
2013-12-10 05:58:00,-999.9,-99.9,30.06,North,32767,-999.0,2.0,255,-99.99,,,0.00,Wunderground v.1.15,2013-12-10 10:58:00,
2013-12-10 06:10:00,70.2,68.4,30.06,ESE,121,0.0,2.0,94,0.00,,,0.00,Wunderground v.1.15,2013-12-10 11:10:00,
2013-12-10 06:22:00,69.7,67.9,30.06,ESE,121,0.0,2.0,94,0.00,,,0.00,Wunderground v.1.15,2013-12-10 11:22:00,
2013-12-10 06:34:00,69.3,67.5,30.06,ESE,121,0.0,2.0,94,0.00,,,0.00,Wunderground v.1.15,2013-12-10 11:34:00,
2013-12-10 06:46:00,-90.0,-90.0,30.07,ESE,123,0.0,2.0,100,0.00,,,0.00,Wunderground v.1.15,2013-12-10 11:46:00,
2013-12-10 06:58:00,-999.9,-99.9,30.07,North,32767,-999.0,2.0,255,-99.99,,,0.00,Wunderground v.1.15,2013-12-10 11:58:00,
2013-12-10 07:10:00,-999.9,-99.9,30.07,North,32767,-999.0,2.0,255,-99.99,,,0.00,Wunderground v.1.15,2013-12-10 12:10:00,
2013-12-10 07:22:00,-999.9,-99.9,30.08,North,32767,-999.0,2.0,255,-99.99,,,0.00,Wunderground v.1.15,2013-12-10 12:22:00,
2013-12-10 07:34:00,70.9,69.7,30.08,ESE,121,0.0,2.0,96,0.00,,,0.00,Wunderground v.1.15,2013-12-10 12:34:00,
2013-12-10 07:46:00,72.3,70.2,30.08,SE,133,0.0,2.0,93,0.00,,,0.00,Wunderground v.1.15,2013-12-10 12:46:00,
2013-12-10 07:58:00,73.9,70.8,30.09,ESE,117,0.0,2.0,90,0.00,,,0.00,Wunderground v.1.15,2013-12-10 12:58:00,
2013-12-10 08:10:00,75.3,71.2,30.09,ESE,123,0.0,2.0,87,0.00,,,0.00,Wunderground v.1.15,2013-12-10 13:10:00,
2013-12-10 08:22:00,76.6,71.4,30.09,SE,131,1.0,1.0,84,0.00,,,0.00,Wunderground v.1.15,2013-12-10 13:22:00,
2013-12-10 08:34:00,77.7,71.4,30.09,SE,146,2.0,4.0,81,0.00,,,0.00,Wunderground v.1.15,2013-12-10 13:34:00,
2013-12-10 08:46:00,78.2,71.9,30.09,SSE,147,3.0,3.0,81,0.00,,,0.00,Wunderground v.1.15,2013-12-10 13:46:00,
2013-12-10 08:58:00,78.9,72.2,30.09,ESE,111,3.0,3.0,80,0.00,,,0.00,Wunderground v.1.15,2013-12-10 13:58:00,
2013-12-10 09:10:00,79.7,72.2,30.10,ESE,122,2.0,3.0,78,0.00,,,0.00,Wunderground v.1.15,2013-12-10 14:10:00,
2013-12-10 09:22:00,79.8,71.9,30.10,ENE,75,4.0,4.0,77,0.00,,,0.00,Wunderground v.1.15,2013-12-10 14:22:00,
2013-12-10 09:34:00,80.5,71.4,30.10,ESE,115,4.0,9.0,74,0.00,,,0.00,Wunderground v.1.15,2013-12-10 14:34:00,
2013-12-10 09:46:00,80.9,71.4,30.10,SE,131,4.0,5.0,73,0.00,,,0.00,Wunderground v.1.15,2013-12-10 14:46:00,
2013-12-10 09:58:00,81.2,70.9,30.10,ESE,121,5.0,6.0,71,0.00,,,0.00,Wunderground v.1.15,2013-12-10 14:58:00,
2013-12-10 10:10:00,81.4,71.1,30.10,ESE,123,6.0,6.0,71,0.00,,,0.00,Wunderground v.1.15,2013-12-10 15:10:00,
2013-12-10 10:22:00,81.3,70.6,30.10,ESE,104,5.0,5.0,70,0.00,,,0.00,Wunderground v.1.15,2013-12-10 15:22:00,
2013-12-10 10:34:00,81.6,70.4,30.09,SE,134,4.0,4.0,69,0.00,,,0.00,Wunderground v.1.15,2013-12-10 15:34:00,
2013-12-10 10:46:00,81.6,70.9,30.09,SE,145,3.0,4.0,70,0.00,,,0.00,Wunderground v.1.15,2013-12-10 15:46:00,
2013-12-10 10:58:00,82.9,70.8,30.09,ESE,115,3.0,3.0,67,0.00,,,0.00,Wunderground v.1.15,2013-12-10 15:58:00,
2013-12-10 11:10:00,83.0,71.3,30.09,ESE,112,4.0,8.0,68,0.00,,,0.00,Wunderground v.1.15,2013-12-10 16:10:00,
2013-12-10 11:22:00,81.8,70.6,30.09,ESE,120,4.0,4.0,69,0.00,,,0.00,Wunderground v.1.15,2013-12-10 16:22:00,
2013-12-10 11:34:00,81.9,70.7,30.08,ESE,122,3.0,3.0,69,0.00,,,0.00,Wunderground v.1.15,2013-12-10 16:34:00,
2013-12-10 11:46:00,82.0,70.8,30.08,SE,132,3.0,3.0,69,0.00,,,0.00,Wunderground v.1.15,2013-12-10 16:46:00,
2013-12-10 11:58:00,83.9,70.4,30.08,SE,140,3.0,3.0,64,0.00,,,0.00,Wunderground v.1.15,2013-12-10 16:58:00,
2013-12-10 12:10:00,83.3,70.8,30.08,SE,139,3.0,3.0,66,0.00,,,0.00,Wunderground v.1.15,2013-12-10 17:10:00,
2013-12-10 12:22:00,83.3,70.8,30.07,ESE,115,3.0,3.0,66,0.00,,,0.00,Wunderground v.1.15,2013-12-10 17:22:00,
2013-12-10 12:34:00,84.7,70.2,30.06,SE,132,1.0,3.0,62,0.00,,,0.00,Wunderground v.1.15,2013-12-10 17:34:00,
2013-12-10 12:46:00,84.3,69.9,30.06,South,187,2.0,2.0,62,0.00,,,0.00,Wunderground v.1.15,2013-12-10 17:46:00,
2013-12-10 12:58:00,84.0,70.0,30.05,SSE,154,2.0,2.0,63,0.00,,,0.00,Wunderground v.1.15,2013-12-10 17:58:00,
2013-12-10 13:10:00,84.7,69.8,30.04,South,188,3.0,4.0,61,0.00,,,0.00,Wunderground v.1.15,2013-12-10 18:10:00,
2013-12-10 13:22:00,83.8,70.3,30.04,SSE,153,3.0,3.0,64,0.00,,,0.00,Wunderground v.1.15,2013-12-10 18:22:00,
2013-12-10 13:34:00,85.3,69.8,30.03,ESE,118,2.0,2.0,60,0.00,,,0.00,Wunderground v.1.15,2013-12-10 18:34:00,
2013-12-10 13:46:00,84.5,69.6,30.03,SW,218,3.0,3.0,61,0.00,,,0.00,Wunderground v.1.15,2013-12-10 18:46:00,
2013-12-10 13:58:00,85.1,70.1,30.03,East,91,2.0,2.0,61,0.00,,,0.00,Wunderground v.1.15,2013-12-10 18:58:00,
2013-12-10 14:10:00,83.5,70.0,30.03,SE,131,3.0,3.0,64,0.00,,,0.00,Wunderground v.1.15,2013-12-10 19:10:00,
2013-12-10 14:22:00,82.7,70.2,30.03,SE,136,3.0,3.0,66,0.00,,,0.00,Wunderground v.1.15,2013-12-10 19:22:00,
2013-12-10 14:34:00,82.9,70.4,30.02,ENE,69,3.0,3.0,66,0.00,,,0.00,Wunderground v.1.15,2013-12-10 19:34:00,
2013-12-10 14:46:00,83.9,70.4,30.02,SE,124,3.0,3.0,64,0.00,,,0.00,Wunderground v.1.15,2013-12-10 19:46:00,
2013-12-10 14:58:00,84.9,71.4,30.02,ESE,121,2.0,6.0,64,0.00,,,0.00,Wunderground v.1.15,2013-12-10 19:58:00,
2013-12-10 15:10:00,83.4,70.4,30.02,SE,142,3.0,3.0,65,0.00,,,0.00,Wunderground v.1.15,2013-12-10 20:10:00,
2013-12-10 15:22:00,82.9,70.8,30.02,SE,136,2.0,2.0,67,0.00,,,0.00,Wunderground v.1.15,2013-12-10 20:22:00,
2013-12-10 15:34:00,82.8,70.3,30.02,SE,141,1.0,2.0,66,0.00,,,0.00,Wunderground v.1.15,2013-12-10 20:34:00,
2013-12-10 15:46:00,82.5,70.9,30.02,SE,141,1.0,1.0,68,0.00,,,0.00,Wunderground v.1.15,2013-12-10 20:46:00,
2013-12-10 15:58:00,81.8,71.1,30.02,SSE,148,3.0,3.0,70,0.00,,,0.00,Wunderground v.1.15,2013-12-10 20:58:00,
2013-12-10 16:10:00,81.8,71.5,30.02,SSE,155,3.0,4.0,71,0.00,,,0.00,Wunderground v.1.15,2013-12-10 21:10:00,
2013-12-10 16:22:00,81.7,71.4,30.02,SE,136,4.0,4.0,71,0.00,,,0.00,Wunderground v.1.15,2013-12-10 21:22:00,
2013-12-10 16:34:00,81.1,72.0,30.02,SE,127,4.0,6.0,74,0.00,,,0.00,Wunderground v.1.15,2013-12-10 21:34:00,
2013-12-10 16:46:00,80.3,71.6,30.03,ESE,120,4.0,4.0,75,0.00,,,0.00,Wunderground v.1.15,2013-12-10 21:46:00,
2013-12-10 16:58:00,80.4,71.7,30.03,ESE,112,2.0,3.0,75,0.00,,,0.00,Wunderground v.1.15,2013-12-10 21:58:00,
2013-12-10 17:10:00,80.0,71.8,30.03,SE,124,3.0,5.0,76,0.00,,,0.00,Wunderground v.1.15,2013-12-10 22:10:00,
2013-12-10 17:22:00,79.6,71.4,30.04,South,189,3.0,4.0,76,0.00,,,0.00,Wunderground v.1.15,2013-12-10 22:22:00,
2013-12-10 17:34:00,79.1,70.9,30.03,East,87,3.0,3.0,76,0.00,,,0.00,Wunderground v.1.15,2013-12-10 22:34:00,
2013-12-10 17:46:00,78.7,70.9,30.04,SE,128,2.0,2.0,77,0.00,,,0.00,Wunderground v.1.15,2013-12-10 22:46:00,
2013-12-10 17:58:00,78.5,71.1,30.04,East,96,2.0,2.0,78,0.00,,,0.00,Wunderground v.1.15,2013-12-10 22:58:00,
2013-12-10 18:10:00,78.1,71.1,30.05,SE,136,2.0,2.0,79,0.00,,,0.00,Wunderground v.1.15,2013-12-10 23:10:00,
2013-12-10 18:22:00,77.7,71.0,30.05,ESE,115,1.0,2.0,80,0.00,,,0.00,Wunderground v.1.15,2013-12-10 23:22:00,
2013-12-10 18:34:00,77.3,71.0,30.05,SE,125,1.0,2.0,81,0.00,,,0.00,Wunderground v.1.15,2013-12-10 23:34:00,
2013-12-10 18:46:00,77.0,71.1,30.05,SE,126,1.0,2.0,82,0.00,,,0.00,Wunderground v.1.15,2013-12-10 23:46:00,
2013-12-10 18:58:00,76.8,71.2,30.05,SE,129,1.0,1.0,83,0.00,,,0.00,Wunderground v.1.15,2013-12-10 23:58:00,
2013-12-10 19:10:00,76.5,71.3,30.06,ESE,122,0.0,2.0,84,0.00,,,0.00,Wunderground v.1.15,2013-12-11 00:10:00,
2013-12-10 19:32:00,76.2,71.4,30.06,SE,131,0.0,2.0,85,0.00,,,0.00,Wunderground v.1.15,2013-12-11 00:32:00,
2013-12-10 19:34:00,76.1,71.3,30.06,East,101,0.0,2.0,85,0.00,,,0.00,Wunderground v.1.15,2013-12-11 00:34:00,
2013-12-10 19:46:00,76.0,71.5,30.07,ESE,119,0.0,2.0,86,0.00,,,0.00,Wunderground v.1.15,2013-12-11 00:46:00,
2013-12-10 19:58:00,75.8,71.7,30.07,ESE,113,0.0,2.0,87,0.00,,,0.00,Wunderground v.1.15,2013-12-11 00:58:00,
2013-12-10 20:20:00,75.6,71.5,30.07,East,99,0.0,2.0,87,0.00,,,0.00,Wunderground v.1.15,2013-12-11 01:20:00,
2013-12-10 20:22:00,75.7,71.9,30.07,ESE,120,0.0,2.0,88,0.00,,,0.00,Wunderground v.1.15,2013-12-11 01:22:00,
2013-12-10 20:34:00,75.7,71.9,30.08,ESE,112,0.0,2.0,88,0.00,,,0.00,Wunderground v.1.15,2013-12-11 01:34:00,
2013-12-10 20:46:00,75.4,71.6,30.08,ESE,113,0.0,2.0,88,0.00,,,0.00,Wunderground v.1.15,2013-12-11 01:46:00,
2013-12-10 20:58:00,74.8,71.3,30.09,ESE,113,0.0,2.0,89,0.00,,,0.00,Wunderground v.1.15,2013-12-11 01:58:00,
2013-12-10 21:20:00,74.4,70.9,30.09,ESE,113,0.0,2.0,89,0.00,,,0.00,Wunderground v.1.15,2013-12-11 02:20:00,
2013-12-10 21:22:00,74.2,71.1,30.09,ESE,113,0.0,2.0,90,0.00,,,0.00,Wunderground v.1.15,2013-12-11 02:22:00,
2013-12-10 21:44:00,74.6,71.8,30.09,SE,141,0.0,2.0,91,0.00,,,0.00,Wunderground v.1.15,2013-12-11 02:44:00,
2013-12-10 21:56:00,74.8,72.0,30.09,SE,141,0.0,2.0,91,0.00,,,0.00,Wunderground v.1.15,2013-12-11 02:56:00,
2013-12-10 22:08:00,74.9,71.8,30.10,ESE,120,0.0,2.0,90,0.00,,,0.00,Wunderground v.1.15,2013-12-11 03:08:00,
2013-12-10 22:20:00,74.5,71.4,30.09,ESE,120,0.0,2.0,90,0.00,,,0.00,Wunderground v.1.15,2013-12-11 03:20:00,
2013-12-10 22:32:00,73.9,71.1,30.09,ESE,120,0.0,2.0,91,0.00,,,0.00,Wunderground v.1.15,2013-12-11 03:32:00,
2013-12-10 22:34:00,73.8,71.3,30.09,ESE,120,0.0,2.0,92,0.00,,,0.00,Wunderground v.1.15,2013-12-11 03:34:00,
2013-12-10 22:56:00,73.6,71.4,30.09,ESE,120,0.0,2.0,93,0.00,,,0.00,Wunderground v.1.15,2013-12-11 03:56:00,
2013-12-10 23:08:00,73.5,71.4,30.09,ESE,120,0.0,2.0,93,0.00,,,0.00,Wunderground v.1.15,2013-12-11 04:08:00,
2013-12-10 23:20:00,73.4,71.6,30.09,NW,325,1.0,1.0,94,0.00,,,0.00,Wunderground v.1.15,2013-12-11 04:20:00,
2013-12-10 23:22:00,73.3,71.2,30.09,NW,325,0.0,2.0,93,0.00,,,0.00,Wunderground v.1.15,2013-12-11 04:22:00,
2013-12-10 23:34:00,73.0,71.2,30.09,NW,325,0.0,2.0,94,0.00,,,0.00,Wunderground v.1.15,2013-12-11 04:34:00,
2013-12-10 23:46:00,72.9,71.1,30.09,NW,325,0.0,2.0,94,0.00,,,0.00,Wunderground v.1.15,2013-12-11 04:46:00,
2013-12-10 23:58:00,72.5,70.7,30.09,NW,325,0.0,2.0,94,0.00,,,0.00,Wunderground v.1.15,2013-12-11 04:58:00,